User: anonymous   Login
Location: Berg
(47.2344°N, 9.5296°E)
Time: 02:45:01
(UTC+00:00)
Language:

Oscar 19 - Orbit

View from above orbital plane
View from above orbital plane
View from above satellite
View from above satellite

Ground track
Ground track

The orbit data is extracted from the following two-line orbital elements,

1 20442U 90005G   21332.29330764  .00000050  00000-0  34780-4 0  9992
2 20442  98.7652 289.4236 0012529  43.4535 316.7634 14.33008078664299
Epoch (UTC): 28 November 2021 07:02:21
Eccentricity: 0.0012529
inclination: 98.7652°
perigee height: 773 km
apogee height: 790 km
right ascension of ascending node: 289.4236°
argument of perigee: 43.4535°
revolutions per day: 14.33008078
mean anomaly at epoch: 316.7634°
orbit number at epoch: 66429

The dashed part of the orbit path shows where the satellite is in the earth's shadow,  

DLR